Regional Weather Roundup
Issued by NWS

Home | Current Version | Previous Version | Text Only | Print | Product List | Glossary On
Versions: 1 2 3 4 5 6 7 8 9 10 11 12 13 14 15 16 17 18 19 20 21 22 23 24 25 26 27 28 29 30 31 32 33 34 35 36 37 38 39 40 41 42 43 44 45 46 47 48 49 50
000
ASUS43 KLSX 270007
RWRMO

WEATHER SUMMARY FOR MISSOURI
NATIONAL WEATHER SERVICE SPRINGFIELD MO
700 PM CDT THU MAR 26 2015

NOTE: "FAIR" INDICATES FEW OR NO CLOUDS BELOW 12,000 FEET WITH NO
       SIGNIFICANT WEATHER AND/OR OBSTRUCTIONS TO VISIBILITY.
       CURRENT SKY AND/OR WEATHER CONDITIONS ARE NOT AVAILABLE FOR
       CHILLICOTHE AND FARMINGTON.

MOZ001>031-035>038-043-044-053-054-270100-
...NORTHERN AND WESTERN MISSOURI...

CITY           SKY/WX    TMP DP  RH WIND       PRES   REMARKS
KANSAS CTY INT CLOUDY    48  29  47 CALM      30.06F
6HR MIN TEMP:  46; 6HR MAX TEMP:  51;

KANSAS C DTWN  CLOUDY    50  26  39 N3        30.06F
6HR MIN TEMP:  48; 6HR MAX TEMP:  53;

LEE`S SUMMIT   MOCLDY    48  26  42 NW6       30.06F
6HR MIN TEMP:  46; 6HR MAX TEMP:  52;

ST JOSEPH      CLOUDY    48  28  46 N5        30.08S
6HR MIN TEMP:  46; 6HR MAX TEMP:  51;

CHILLICOTHE      N/A     49  27  42 NW8       30.07F
6HR MIN TEMP:  46; 6HR MAX TEMP:  52;

KIRKSVILLE     PTCLDY    46  25  43 N7        30.05F
6HR MIN TEMP:  46; 6HR MAX TEMP:  51;


$$
MOZ066>068-077>081-088>096-101>105-270100-
...SOUTHWEST MISSOURI...

CITY           SKY/WX    TMP DP  RH WIND       PRES   REMARKS
SPRINGFIELD    CLEAR     49  28  44 NW8       30.07R
6HR MIN TEMP:  47; 6HR MAX TEMP:  53;

JOPLIN         CLEAR     50  28  42 N8        30.09S
6HR MIN TEMP:  48; 6HR MAX TEMP:  54;


$$
MOZ032>034-039>042-045>050-055>058-069>072-270100-
...CENTRAL MISSOURI...

CITY           SKY/WX    TMP DP  RH WIND       PRES   REMARKS
COLUMBIA       CLEAR     47  29  49 NW10      30.06R
6HR MIN TEMP:  44; 6HR MAX TEMP:  50;

JEFFERSON CITY CLEAR     49  27  42 W12       30.06S
6HR MIN TEMP:  45; 6HR MAX TEMP:  51;

ROLLA          CLEAR     46  28  49 MISG      30.03S
6HR MIN TEMP:  42; 6HR MAX TEMP:  50;

SEDALIA        CLEAR     49  30  48 NW7       30.08F
6HR MIN TEMP:  46; 6HR MAX TEMP:  51;

WHITEMAN AFB   PTCLDY    48  28  45 NW7       30.07S
WARRENSBURG    PTCLDY    46  28  49 NW3       30.07F
OSAGE BEACH    CLEAR     48  27  43 NW6       30.07R

$$
MOZ051-052-059>065-270100-
...EAST CENTRAL MISSOURI...

CITY           SKY/WX    TMP DP  RH WIND       PRES   REMARKS
ST LOUIS INTL  PTCLDY    48  26  42 NW12      30.05R
6HR MIN TEMP:  43; 6HR MAX TEMP:  51;

SPIRIT OF STL  CLEAR     48  27  44 NW9       30.04S
6HR MIN TEMP:  42; 6HR MAX TEMP:  51;

ST CHARLES     LGT RAIN  48  25  40 NW13      30.04S
6HR MIN TEMP:  43; 6HR MAX TEMP:  50; 6HR PCP: TRACE;


$$
MOZ072>076-082>087-097>100-106>115-270100-
...SOUTH CENTRAL AND SOUTHEAST MISSOURI...

CITY           SKY/WX    TMP DP  RH WIND       PRES   REMARKS
CAPE GIRARDEAU CLEAR     45  34  65 N8        30.03S
6HR MIN TEMP:  41; 6HR MAX TEMP:  48;

FARMINGTON     CLEAR     46  25  42 N8        30.06S
6HR MIN TEMP:  39; 6HR MAX TEMP:  48;

POPLAR BLUFF   CLEAR     50  31  48 N7        30.03R
6HR MIN TEMP:  43; 6HR MAX TEMP:  52; 6HR PCP: TRACE;

WEST PLAINS    CLEAR     50  25  37 MISG      30.05R
6HR MIN TEMP:  44; 6HR MAX TEMP:  53;


$$


USA.gov is the U.S. government's official web portal to all federal, state and local government web resources and services.